contact:dominique.lefevre@mio.osupytheas.fr, maurice.libes@osupytheas.fr, didier.mallarino@osupytheas.fr
Project:EMSO http://www.emso-fr.org/EMSO-France
Depth: 2436.0 m
Title:EMSO Ligure Ouest : Data MII capteur MICROCAT
DateTime_Computer,Latitude,Longitude,Temperature,Conductivity,Pressure,DateTime_Instrument
DateTime_Computer,Latitude,Longitude,degC,S m-1,dbar,DateTime_Instrument
2023-07-08T00:01:03Z,42.805,6.029,13.3026,4.60081,2470.857,2023-7-08T02:03:19Z
2023-07-08T00:04:06Z,42.805,6.029,13.3023,4.60081,2470.833,2023-7-08T02:06:22Z
2023-07-08T00:07:09Z,42.805,6.029,13.3020,4.60081,2470.847,2023-7-08T02:09:25Z
2023-07-08T00:10:12Z,42.805,6.029,13.3026,4.60087,2470.81,2023-7-08T02:12:28Z
2023-07-08T00:13:15Z,42.805,6.029,13.3019,4.60082,2470.81,2023-7-08T02:15:31Z
2023-07-08T00:16:18Z,42.805,6.029,13.3021,4.60081,2470.824,2023-7-08T02:18:34Z
2023-07-08T00:19:21Z,42.805,6.029,13.3022,4.60084,2470.857,2023-7-08T02:21:37Z
2023-07-08T00:22:25Z,42.805,6.029,13.3026,4.60083,2470.871,2023-7-08T02:24:41Z
2023-07-08T00:25:28Z,42.805,6.029,13.3020,4.60083,2470.847,2023-7-08T02:27:44Z
2023-07-08T00:28:31Z,42.805,6.029,13.3019,4.60081,2470.857,2023-7-08T02:30:47Z
2023-07-08T00:31:34Z,42.805,6.029,13.3021,4.60081,2470.871,2023-7-08T02:33:50Z
2023-07-08T00:34:37Z,42.805,6.029,13.3023,4.60085,2470.871,2023-7-08T02:36:53Z
2023-07-08T00:37:40Z,42.805,6.029,13.3017,4.60081,2470.843,2023-7-08T02:39:56Z
2023-07-08T00:40:43Z,42.805,6.029,13.3019,4.60081,2470.847,2023-7-08T02:42:59Z
2023-07-08T00:43:46Z,42.805,6.029,13.3020,4.60087,2470.857,2023-7-08T02:46:02Z
2023-07-08T00:46:49Z,42.805,6.029,13.3021,4.60081,2470.81,2023-7-08T02:49:05Z
2023-07-08T00:49:52Z,42.805,6.029,13.3021,4.60089,2470.833,2023-7-08T02:52:08Z
2023-07-08T00:52:55Z,42.805,6.029,13.3021,4.60081,2470.847,2023-7-08T02:55:11Z
2023-07-08T00:55:58Z,42.805,6.029,13.3021,4.60083,2470.824,2023-7-08T02:58:14Z
2023-07-08T00:59:01Z,42.805,6.029,13.3021,4.60082,2470.833,2023-7-08T03:01:18Z
2023-07-08T01:02:05Z,42.805,6.029,13.3020,4.60081,2470.824,2023-7-08T03:04:21Z
2023-07-08T01:05:08Z,42.805,6.029,13.3024,4.60082,2470.847,2023-7-08T03:07:24Z
2023-07-08T01:08:11Z,42.805,6.029,13.3020,4.60081,2470.81,2023-7-08T03:10:27Z
2023-07-08T01:11:14Z,42.805,6.029,13.3019,4.60082,2470.847,2023-7-08T03:13:30Z
2023-07-08T01:14:17Z,42.805,6.029,13.3026,4.60084,2470.847,2023-7-08T03:16:33Z
2023-07-08T01:17:20Z,42.805,6.029,13.3024,4.60081,2470.824,2023-7-08T03:19:36Z
2023-07-08T01:20:23Z,42.805,6.029,13.3021,4.60081,2470.81,2023-7-08T03:22:39Z
2023-07-08T01:23:26Z,42.805,6.029,13.3022,4.60081,2470.8,2023-7-08T03:25:42Z
2023-07-08T01:26:29Z,42.805,6.029,13.3021,4.60081,2470.787,2023-7-08T03:28:45Z
2023-07-08T01:29:32Z,42.805,6.029,13.3024,4.60082,2470.81,2023-7-08T03:31:48Z
2023-07-08T01:32:35Z,42.805,6.029,13.3023,4.60081,2470.847,2023-7-08T03:34:51Z
2023-07-08T01:35:38Z,42.805,6.029,13.3019,4.60080,2470.824,2023-7-08T03:37:54Z
2023-07-08T01:38:41Z,42.805,6.029,13.3022,4.60083,2470.833,2023-7-08T03:40:58Z
2023-07-08T01:41:45Z,42.805,6.029,13.3021,4.60088,2470.81,2023-7-08T03:44:01Z
2023-07-08T01:44:48Z,42.805,6.029,13.3024,4.60081,2470.847,2023-7-08T03:47:04Z
2023-07-08T01:47:51Z,42.805,6.029,13.3019,4.60082,2470.777,2023-7-08T03:50:07Z
2023-07-08T01:50:54Z,42.805,6.029,13.3024,4.60084,2470.81,2023-7-08T03:53:10Z
2023-07-08T01:53:57Z,42.805,6.029,13.3019,4.60082,2470.824,2023-7-08T03:56:13Z
2023-07-08T01:57:00Z,42.805,6.029,13.3025,4.60080,2470.787,2023-7-08T03:59:16Z
2023-07-08T02:00:03Z,42.805,6.029,13.3025,4.60082,2470.81,2023-7-08T04:02:19Z
2023-07-08T02:03:06Z,42.805,6.029,13.3019,4.60087,2470.8,2023-7-08T04:05:22Z
2023-07-08T02:06:09Z,42.805,6.029,13.3024,4.60082,2470.763,2023-7-08T04:08:25Z
2023-07-08T02:09:12Z,42.805,6.029,13.3021,4.60081,2470.763,2023-7-08T04:11:28Z
2023-07-08T02:12:15Z,42.805,6.029,13.3019,4.60084,2470.787,2023-7-08T04:14:31Z
2023-07-08T02:15:18Z,42.805,6.029,13.3020,4.60084,2470.787,2023-7-08T04:17:34Z
2023-07-08T02:18:21Z,42.805,6.029,13.3022,4.60086,2470.8,2023-7-08T04:20:38Z
2023-07-08T02:21:25Z,42.805,6.029,13.3020,4.60081,2470.763,2023-7-08T04:23:41Z
2023-07-08T02:24:28Z,42.805,6.029,13.3024,4.60081,2470.763,2023-7-08T04:26:44Z
2023-07-08T02:27:31Z,42.805,6.029,13.3023,4.60081,2470.763,2023-7-08T04:29:47Z
2023-07-08T02:30:34Z,42.805,6.029,13.3025,4.60081,2470.777,2023-7-08T04:32:50Z
2023-07-08T02:33:37Z,42.805,6.029,13.3021,4.60081,2470.763,2023-7-08T04:35:53Z
2023-07-08T02:36:40Z,42.805,6.029,13.3024,4.60081,2470.763,2023-7-08T04:38:56Z
2023-07-08T02:39:43Z,42.805,6.029,13.3025,4.60081,2470.777,2023-7-08T04:41:59Z
2023-07-08T02:42:46Z,42.805,6.029,13.3021,4.60082,2470.763,2023-7-08T04:45:02Z
2023-07-08T02:45:49Z,42.805,6.029,13.3021,4.60085,2470.717,2023-7-08T04:48:05Z
2023-07-08T02:48:52Z,42.805,6.029,13.3024,4.60080,2470.754,2023-7-08T04:51:08Z
2023-07-08T02:51:55Z,42.805,6.029,13.3023,4.60082,2470.74,2023-7-08T04:54:11Z
2023-07-08T02:54:58Z,42.805,6.029,13.3023,4.60085,2470.74,2023-7-08T04:57:14Z
2023-07-08T02:58:02Z,42.805,6.029,13.3022,4.60082,2470.754,2023-7-08T05:00:18Z
2023-07-08T03:01:05Z,42.805,6.029,13.3021,4.60085,2470.717,2023-7-08T05:03:21Z
2023-07-08T03:04:08Z,42.805,6.029,13.3024,4.60081,2470.74,2023-7-08T05:06:24Z
2023-07-08T03:07:11Z,42.805,6.029,13.3017,4.60082,2470.754,2023-7-08T05:09:27Z
2023-07-08T03:10:14Z,42.805,6.029,13.3021,4.60082,2470.717,2023-7-08T05:12:30Z
2023-07-08T03:13:17Z,42.805,6.029,13.3021,4.60080,2470.73,2023-7-08T05:15:33Z
2023-07-08T03:16:20Z,42.805,6.029,13.3021,4.60081,2470.707,2023-7-08T05:18:36Z
2023-07-08T03:19:23Z,42.805,6.029,13.3024,4.60082,2470.693,2023-7-08T05:21:39Z
2023-07-08T03:22:26Z,42.805,6.029,13.3022,4.60079,2470.74,2023-7-08T05:24:42Z
2023-07-08T03:25:29Z,42.805,6.029,13.3024,4.60083,2470.73,2023-7-08T05:27:45Z
2023-07-08T03:28:32Z,42.805,6.029,13.3021,4.60082,2470.717,2023-7-08T05:30:48Z
2023-07-08T03:31:35Z,42.805,6.029,13.3024,4.60081,2470.693,2023-7-08T05:33:51Z
2023-07-08T03:34:38Z,42.805,6.029,13.3020,4.60081,2470.693,2023-7-08T05:36:55Z
2023-07-08T03:37:42Z,42.805,6.029,13.3022,4.60082,2470.717,2023-7-08T05:39:58Z
2023-07-08T03:40:45Z,42.805,6.029,13.3017,4.60082,2470.717,2023-7-08T05:43:01Z
2023-07-08T03:43:48Z,42.805,6.029,13.3019,4.60081,2470.693,2023-7-08T05:46:04Z
2023-07-08T03:46:51Z,42.805,6.029,13.3023,4.60081,2470.693,2023-7-08T05:49:07Z
2023-07-08T03:49:54Z,42.805,6.029,13.3021,4.60081,2470.717,2023-7-08T05:52:10Z
2023-07-08T03:52:57Z,42.805,6.029,13.3021,4.60081,2470.693,2023-7-08T05:55:13Z
2023-07-08T03:56:00Z,42.805,6.029,13.3024,4.60082,2470.707,2023-7-08T05:58:16Z
2023-07-08T03:59:03Z,42.805,6.029,13.3021,4.60081,2470.717,2023-7-08T06:01:19Z
2023-07-08T04:02:06Z,42.805,6.029,13.3022,4.60082,2470.67,2023-7-08T06:04:22Z
2023-07-08T04:05:09Z,42.805,6.029,13.3021,4.60084,2470.684,2023-7-08T06:07:25Z
2023-07-08T04:08:12Z,42.805,6.029,13.3019,4.60081,2470.693,2023-7-08T06:10:28Z
2023-07-08T04:11:15Z,42.805,6.029,13.3021,4.60084,2470.707,2023-7-08T06:13:31Z
2023-07-08T04:14:18Z,42.805,6.029,13.3025,4.60081,2470.707,2023-7-08T06:16:35Z
2023-07-08T04:17:22Z,42.805,6.029,13.3022,4.60080,2470.693,2023-7-08T06:19:38Z
2023-07-08T04:20:25Z,42.805,6.029,13.3023,4.60081,2470.684,2023-7-08T06:22:41Z
2023-07-08T04:23:28Z,42.805,6.029,13.3019,4.60081,2470.707,2023-7-08T06:25:44Z
2023-07-08T04:26:31Z,42.805,6.029,13.3024,4.60081,2470.693,2023-7-08T06:28:47Z
2023-07-08T04:29:34Z,42.805,6.029,13.3022,4.60081,2470.67,2023-7-08T06:31:50Z
2023-07-08T04:32:37Z,42.805,6.029,13.3023,4.60080,2470.693,2023-7-08T06:34:53Z
2023-07-08T04:35:40Z,42.805,6.029,13.3028,4.60083,2470.693,2023-7-08T06:37:56Z
2023-07-08T04:38:43Z,42.805,6.029,13.3023,4.60082,2470.67,2023-7-08T06:40:59Z
2023-07-08T04:41:46Z,42.805,6.029,13.3021,4.60080,2470.693,2023-7-08T06:44:02Z
2023-07-08T04:44:49Z,42.805,6.029,13.3018,4.60081,2470.693,2023-7-08T06:47:05Z
2023-07-08T04:47:52Z,42.805,6.029,13.3019,4.60082,2470.646,2023-7-08T06:50:08Z
2023-07-08T04:50:55Z,42.805,6.029,13.3021,4.60082,2470.661,2023-7-08T06:53:11Z
2023-07-08T04:53:58Z,42.805,6.029,13.3017,4.60081,2470.67,2023-7-08T06:56:15Z
2023-07-08T04:57:02Z,42.805,6.029,13.3017,4.60081,2470.67,2023-7-08T06:59:18Z
2023-07-08T05:00:05Z,42.805,6.029,13.3023,4.60081,2470.646,2023-7-08T07:02:21Z
2023-07-08T05:03:08Z,42.805,6.029,13.3024,4.60082,2470.646,2023-7-08T07:05:24Z
2023-07-08T05:06:11Z,42.805,6.029,13.3020,4.60081,2470.646,2023-7-08T07:08:27Z
2023-07-08T05:09:14Z,42.805,6.029,13.3021,4.60081,2470.67,2023-7-08T07:11:30Z
2023-07-08T05:12:17Z,42.805,6.029,13.3020,4.60081,2470.637,2023-7-08T07:14:33Z
2023-07-08T05:15:20Z,42.805,6.029,13.3021,4.60081,2470.624,2023-7-08T07:17:36Z
2023-07-08T05:18:23Z,42.805,6.029,13.3021,4.60080,2470.661,2023-7-08T07:20:39Z
2023-07-08T05:21:26Z,42.805,6.029,13.3021,4.60082,2470.684,2023-7-08T07:23:42Z
2023-07-08T05:24:29Z,42.805,6.029,13.3021,4.60081,2470.646,2023-7-08T07:26:45Z
2023-07-08T05:27:32Z,42.805,6.029,13.3022,4.60081,2470.684,2023-7-08T07:29:48Z
2023-07-08T05:30:35Z,42.805,6.029,13.3023,4.60083,2470.646,2023-7-08T07:32:51Z
2023-07-08T05:33:38Z,42.805,6.029,13.3019,4.60080,2470.661,2023-7-08T07:35:55Z
2023-07-08T05:36:42Z,42.805,6.029,13.3023,4.60079,2470.67,2023-7-08T07:38:58Z
2023-07-08T05:39:45Z,42.805,6.029,13.3019,4.60081,2470.646,2023-7-08T07:42:01Z
2023-07-08T05:42:48Z,42.805,6.029,13.3021,4.60081,2470.624,2023-7-08T07:45:04Z
2023-07-08T05:45:51Z,42.805,6.029,13.3019,4.60080,2470.67,2023-7-08T07:48:07Z
2023-07-08T05:48:54Z,42.805,6.029,13.3023,4.60081,2470.67,2023-7-08T07:51:10Z
2023-07-08T05:51:57Z,42.805,6.029,13.3019,4.60079,2470.646,2023-7-08T07:54:13Z
2023-07-08T05:55:00Z,42.805,6.029,13.3023,4.60081,2470.646,2023-7-08T07:57:16Z
2023-07-08T05:58:03Z,42.805,6.029,13.3026,4.60081,2470.646,2023-7-08T08:00:19Z
2023-07-08T06:01:06Z,42.805,6.029,13.3019,4.60080,2470.646,2023-7-08T08:03:22Z
2023-07-08T06:04:09Z,42.805,6.029,13.3024,4.60079,2470.661,2023-7-08T08:06:25Z
2023-07-08T06:07:12Z,42.805,6.029,13.3021,4.60082,2470.624,2023-7-08T08:09:28Z
2023-07-08T06:10:15Z,42.805,6.029,13.3023,4.60081,2470.624,2023-7-08T08:12:31Z
2023-07-08T06:13:19Z,42.805,6.029,13.3024,4.60081,2470.67,2023-7-08T08:15:35Z
2023-07-08T06:16:22Z,42.805,6.029,13.3023,4.60081,2470.646,2023-7-08T08:18:38Z
2023-07-08T06:19:25Z,42.805,6.029,13.3023,4.60081,2470.624,2023-7-08T08:21:41Z
2023-07-08T06:22:28Z,42.805,6.029,13.3021,4.60081,2470.684,2023-7-08T08:24:44Z
2023-07-08T06:25:31Z,42.805,6.029,13.3022,4.60079,2470.661,2023-7-08T08:27:47Z
2023-07-08T06:28:34Z,42.805,6.029,13.3021,4.60079,2470.624,2023-7-08T08:30:50Z
2023-07-08T06:31:37Z,42.805,6.029,13.3021,4.60080,2470.624,2023-7-08T08:33:53Z
2023-07-08T06:34:40Z,42.805,6.029,13.3021,4.60082,2470.67,2023-7-08T08:36:56Z
2023-07-08T06:37:43Z,42.805,6.029,13.3021,4.60080,2470.67,2023-7-08T08:39:59Z
2023-07-08T06:40:46Z,42.805,6.029,13.3021,4.60079,2470.646,2023-7-08T08:43:02Z
2023-07-08T06:43:49Z,42.805,6.029,13.3019,4.60080,2470.646,2023-7-08T08:46:05Z
2023-07-08T06:46:52Z,42.805,6.029,13.3022,4.60081,2470.661,2023-7-08T08:49:08Z
2023-07-08T06:49:55Z,42.805,6.029,13.3024,4.60081,2470.67,2023-7-08T08:52:12Z
2023-07-08T06:52:59Z,42.805,6.029,13.3022,4.60081,2470.646,2023-7-08T08:55:15Z
2023-07-08T06:56:02Z,42.805,6.029,13.3021,4.60084,2470.646,2023-7-08T08:58:18Z
2023-07-08T06:59:05Z,42.805,6.029,13.3019,4.60081,2470.646,2023-7-08T09:01:21Z
2023-07-08T07:02:08Z,42.805,6.029,13.3024,4.60081,2470.637,2023-7-08T09:04:24Z
2023-07-08T07:05:11Z,42.805,6.029,13.3022,4.60081,2470.661,2023-7-08T09:07:27Z
2023-07-08T07:08:14Z,42.805,6.029,13.3019,4.60080,2470.684,2023-7-08T09:10:30Z
2023-07-08T07:11:17Z,42.805,6.029,13.3022,4.60080,2470.67,2023-7-08T09:13:33Z
2023-07-08T07:14:20Z,42.805,6.029,13.3022,4.60081,2470.624,2023-7-08T09:16:36Z
2023-07-08T07:17:23Z,42.805,6.029,13.3021,4.60081,2470.624,2023-7-08T09:19:39Z
2023-07-08T07:20:26Z,42.805,6.029,13.3022,4.60079,2470.646,2023-7-08T09:22:42Z
2023-07-08T07:23:29Z,42.805,6.029,13.3020,4.60081,2470.67,2023-7-08T09:25:45Z
2023-07-08T07:26:32Z,42.805,6.029,13.3021,4.60080,2470.67,2023-7-08T09:28:48Z
2023-07-08T07:29:35Z,42.805,6.029,13.3024,4.60080,2470.693,2023-7-08T09:31:52Z
2023-07-08T07:32:39Z,42.805,6.029,13.3022,4.60079,2470.684,2023-7-08T09:34:55Z
2023-07-08T07:35:42Z,42.805,6.029,13.3019,4.60081,2470.646,2023-7-08T09:37:58Z
2023-07-08T07:38:45Z,42.805,6.029,13.3022,4.60080,2470.693,2023-7-08T09:41:01Z
2023-07-08T07:41:48Z,42.805,6.029,13.3022,4.60081,2470.67,2023-7-08T09:44:04Z
2023-07-08T07:44:51Z,42.805,6.029,13.3022,4.60079,2470.646,2023-7-08T09:47:07Z
2023-07-08T07:47:54Z,42.805,6.029,13.3022,4.60079,2470.707,2023-7-08T09:50:10Z
2023-07-08T07:50:57Z,42.805,6.029,13.3021,4.60081,2470.67,2023-7-08T09:53:13Z
2023-07-08T07:54:00Z,42.805,6.029,13.3019,4.60081,2470.717,2023-7-08T09:56:16Z
2023-07-08T07:57:03Z,42.805,6.029,13.3020,4.60080,2470.693,2023-7-08T09:59:19Z
2023-07-08T08:00:06Z,42.805,6.029,13.3021,4.60081,2470.693,2023-7-08T10:02:22Z
2023-07-08T08:03:09Z,42.805,6.029,13.3019,4.60079,2470.693,2023-7-08T10:05:25Z
2023-07-08T08:06:12Z,42.805,6.029,13.3023,4.60081,2470.693,2023-7-08T10:08:28Z
2023-07-08T08:09:15Z,42.805,6.029,13.3026,4.60079,2470.707,2023-7-08T10:11:32Z
2023-07-08T08:12:19Z,42.805,6.029,13.3021,4.60079,2470.717,2023-7-08T10:14:35Z
2023-07-08T08:15:22Z,42.805,6.029,13.3021,4.60079,2470.693,2023-7-08T10:17:38Z
2023-07-08T08:18:25Z,42.805,6.029,13.3021,4.60081,2470.73,2023-7-08T10:20:41Z
2023-07-08T08:21:28Z,42.805,6.029,13.3025,4.60081,2470.717,2023-7-08T10:23:44Z
2023-07-08T08:24:31Z,42.805,6.029,13.3020,4.60081,2470.703,2023-7-08T10:26:47Z
2023-07-08T08:27:34Z,42.805,6.029,13.3024,4.60080,2470.73,2023-7-08T10:29:50Z
2023-07-08T08:30:35Z,42.805,6.029,13.3023,4.60081,2470.693,2023-7-08T10:32:51Z
2023-07-08T08:33:38Z,42.805,6.029,13.3020,4.60081,2470.717,2023-7-08T10:35:54Z
2023-07-08T08:36:41Z,42.805,6.029,13.3024,4.60081,2470.693,2023-7-08T10:38:58Z
2023-07-08T08:39:45Z,42.805,6.029,13.3022,4.60079,2470.717,2023-7-08T10:42:01Z
2023-07-08T08:42:48Z,42.805,6.029,13.3020,4.60081,2470.717,2023-7-08T10:45:04Z
2023-07-08T08:45:51Z,42.805,6.029,13.3020,4.60079,2470.717,2023-7-08T10:48:07Z
2023-07-08T08:48:54Z,42.805,6.029,13.3020,4.60080,2470.717,2023-7-08T10:51:10Z
2023-07-08T08:51:57Z,42.805,6.029,13.3024,4.60081,2470.693,2023-7-08T10:54:13Z
2023-07-08T08:55:00Z,42.805,6.029,13.3023,4.60082,2470.717,2023-7-08T10:57:16Z
2023-07-08T08:58:03Z,42.805,6.029,13.3021,4.60081,2470.74,2023-7-08T11:00:19Z
2023-07-08T09:01:06Z,42.805,6.029,13.3019,4.60081,2470.754,2023-7-08T11:03:22Z
2023-07-08T09:04:09Z,42.805,6.029,13.3021,4.60079,2470.73,2023-7-08T11:06:25Z
2023-07-08T09:07:12Z,42.805,6.029,13.3019,4.60081,2470.73,2023-7-08T11:09:28Z
2023-07-08T09:10:15Z,42.805,6.029,13.3023,4.60080,2470.73,2023-7-08T11:12:31Z
2023-07-08T09:13:18Z,42.805,6.029,13.3021,4.60082,2470.73,2023-7-08T11:15:34Z
2023-07-08T09:16:22Z,42.805,6.029,13.3024,4.60080,2470.73,2023-7-08T11:18:38Z
2023-07-08T09:19:25Z,42.805,6.029,13.3022,4.60081,2470.703,2023-7-08T11:21:41Z
2023-07-08T09:22:28Z,42.805,6.029,13.3022,4.60082,2470.717,2023-7-08T11:24:44Z
2023-07-08T09:25:31Z,42.805,6.029,13.3023,4.60080,2470.763,2023-7-08T11:27:47Z
2023-07-08T09:28:34Z,42.805,6.029,13.3027,4.60079,2470.693,2023-7-08T11:30:50Z
2023-07-08T09:31:37Z,42.805,6.029,13.3023,4.60080,2470.717,2023-7-08T11:33:53Z
2023-07-08T09:34:40Z,42.805,6.029,13.3026,4.60080,2470.763,2023-7-08T11:36:56Z
2023-07-08T09:37:43Z,42.805,6.029,13.3020,4.60082,2470.754,2023-7-08T11:39:59Z
2023-07-08T09:40:46Z,42.805,6.029,13.3019,4.60079,2470.717,2023-7-08T11:43:02Z
2023-07-08T09:43:49Z,42.805,6.029,13.3019,4.60079,2470.693,2023-7-08T11:46:05Z
2023-07-08T09:46:52Z,42.805,6.029,13.3021,4.60081,2470.75,2023-7-08T11:49:08Z
2023-07-08T09:49:55Z,42.805,6.029,13.3020,4.60084,2470.74,2023-7-08T11:52:12Z
2023-07-08T09:52:59Z,42.805,6.029,13.3024,4.60079,2470.763,2023-7-08T11:55:15Z
2023-07-08T09:56:02Z,42.805,6.029,13.3024,4.60081,2470.73,2023-7-08T11:58:18Z
2023-07-08T09:59:05Z,42.805,6.029,13.3021,4.60084,2470.717,2023-7-08T12:01:21Z
2023-07-08T10:02:08Z,42.805,6.029,13.3019,4.60080,2470.754,2023-7-08T12:04:24Z
2023-07-08T10:05:11Z,42.805,6.029,13.3021,4.60080,2470.74,2023-7-08T12:07:27Z
2023-07-08T10:08:14Z,42.805,6.029,13.3027,4.60079,2470.74,2023-7-08T12:10:30Z
2023-07-08T10:11:17Z,42.805,6.029,13.3024,4.60079,2470.717,2023-7-08T12:13:33Z
2023-07-08T10:14:20Z,42.805,6.029,13.3020,4.60084,2470.777,2023-7-08T12:16:36Z
2023-07-08T10:17:23Z,42.805,6.029,13.3024,4.60079,2470.717,2023-7-08T12:19:39Z
2023-07-08T10:20:26Z,42.805,6.029,13.3023,4.60080,2470.763,2023-7-08T12:22:42Z
2023-07-08T10:23:29Z,42.805,6.029,13.3024,4.60079,2470.754,2023-7-08T12:25:45Z
2023-07-08T10:26:32Z,42.805,6.029,13.3022,4.60079,2470.73,2023-7-08T12:28:49Z
2023-07-08T10:29:36Z,42.805,6.029,13.3024,4.60081,2470.74,2023-7-08T12:31:52Z
2023-07-08T10:32:38Z,42.805,6.029,13.3023,4.60082,2470.707,2023-7-08T12:34:54Z
2023-07-08T10:35:41Z,42.805,6.029,13.3019,4.60085,2470.754,2023-7-08T12:37:57Z
2023-07-08T10:38:44Z,42.805,6.029,13.3029,4.60080,2470.74,2023-7-08T12:41:00Z
2023-07-08T10:41:47Z,42.805,6.029,13.3024,4.60080,2470.74,2023-7-08T12:44:04Z
2023-07-08T10:44:51Z,42.805,6.029,13.3024,4.60081,2470.717,2023-7-08T12:47:07Z
2023-07-08T10:47:54Z,42.805,6.029,13.3024,4.60081,2470.74,2023-7-08T12:50:10Z
2023-07-08T10:50:57Z,42.805,6.029,13.3022,4.60081,2470.717,2023-7-08T12:53:13Z
2023-07-08T10:54:00Z,42.805,6.029,13.3021,4.60081,2470.74,2023-7-08T12:56:16Z
2023-07-08T10:57:03Z,42.805,6.029,13.3021,4.60080,2470.74,2023-7-08T12:59:19Z
2023-07-08T11:00:06Z,42.805,6.029,13.3022,4.60082,2470.717,2023-7-08T13:02:22Z
2023-07-08T11:03:09Z,42.805,6.029,13.3019,4.60084,2470.73,2023-7-08T13:05:25Z
2023-07-08T11:06:12Z,42.805,6.029,13.3022,4.60080,2470.73,2023-7-08T13:08:28Z
2023-07-08T11:09:15Z,42.805,6.029,13.3021,4.60080,2470.754,2023-7-08T13:11:31Z
2023-07-08T11:12:18Z,42.805,6.029,13.3021,4.60080,2470.717,2023-7-08T13:14:34Z
2023-07-08T11:15:21Z,42.805,6.029,13.3021,4.60079,2470.763,2023-7-08T13:17:37Z
2023-07-08T11:18:24Z,42.805,6.029,13.3026,4.60081,2470.754,2023-7-08T13:20:41Z
2023-07-08T11:21:28Z,42.805,6.029,13.3021,4.60081,2470.73,2023-7-08T13:23:44Z
2023-07-08T11:24:31Z,42.805,6.029,13.3023,4.60081,2470.74,2023-7-08T13:26:47Z
2023-07-08T11:27:34Z,42.805,6.029,13.3021,4.60080,2470.754,2023-7-08T13:29:50Z
2023-07-08T11:30:37Z,42.805,6.029,13.3023,4.60080,2470.754,2023-7-08T13:32:53Z
2023-07-08T11:33:40Z,42.805,6.029,13.3024,4.60081,2470.717,2023-7-08T13:35:56Z
2023-07-08T11:36:43Z,42.805,6.029,13.3019,4.60079,2470.74,2023-7-08T13:38:59Z
2023-07-08T11:39:46Z,42.805,6.029,13.3022,4.60079,2470.763,2023-7-08T13:42:02Z
2023-07-08T11:42:49Z,42.805,6.029,13.3023,4.60081,2470.73,2023-7-08T13:45:05Z
2023-07-08T11:45:52Z,42.805,6.029,13.3021,4.60079,2470.74,2023-7-08T13:48:08Z
2023-07-08T11:48:55Z,42.805,6.029,13.3025,4.60080,2470.73,2023-7-08T13:51:11Z
2023-07-08T11:51:58Z,42.805,6.029,13.3024,4.60079,2470.717,2023-7-08T13:54:14Z
2023-07-08T11:55:01Z,42.805,6.029,13.3021,4.60080,2470.74,2023-7-08T13:57:18Z
2023-07-08T11:58:05Z,42.805,6.029,13.3019,4.60079,2470.717,2023-7-08T14:00:21Z
2023-07-08T12:01:08Z,42.805,6.029,13.3021,4.60079,2470.717,2023-7-08T14:03:24Z
2023-07-08T12:04:11Z,42.805,6.029,13.3021,4.60079,2470.73,2023-7-08T14:06:27Z
2023-07-08T12:07:14Z,42.805,6.029,13.3020,4.60079,2470.693,2023-7-08T14:09:30Z
2023-07-08T12:10:17Z,42.805,6.029,13.3024,4.60081,2470.717,2023-7-08T14:12:33Z
2023-07-08T12:13:20Z,42.805,6.029,13.3026,4.60079,2470.763,2023-7-08T14:15:36Z
2023-07-08T12:16:23Z,42.805,6.029,13.3019,4.60080,2470.717,2023-7-08T14:18:39Z
2023-07-08T12:19:26Z,42.805,6.029,13.3022,4.60084,2470.717,2023-7-08T14:21:42Z
2023-07-08T12:22:29Z,42.805,6.029,13.3019,4.60084,2470.684,2023-7-08T14:24:45Z
2023-07-08T12:25:32Z,42.805,6.029,13.3020,4.60079,2470.67,2023-7-08T14:27:48Z
2023-07-08T12:28:35Z,42.805,6.029,13.3023,4.60080,2470.754,2023-7-08T14:30:51Z
2023-07-08T12:31:38Z,42.805,6.029,13.3021,4.60080,2470.717,2023-7-08T14:33:55Z
2023-07-08T12:34:42Z,42.805,6.029,13.3020,4.60079,2470.73,2023-7-08T14:36:58Z
2023-07-08T12:37:45Z,42.805,6.029,13.3026,4.60081,2470.717,2023-7-08T14:40:01Z
2023-07-08T12:40:48Z,42.805,6.029,13.3024,4.60080,2470.707,2023-7-08T14:43:04Z
2023-07-08T12:43:51Z,42.805,6.029,13.3020,4.60080,2470.693,2023-7-08T14:46:07Z
2023-07-08T12:46:54Z,42.805,6.029,13.3024,4.60079,2470.693,2023-7-08T14:49:10Z
2023-07-08T12:49:57Z,42.805,6.029,13.3019,4.60079,2470.717,2023-7-08T14:52:13Z
2023-07-08T12:53:00Z,42.805,6.029,13.3023,4.60081,2470.707,2023-7-08T14:55:16Z
2023-07-08T12:56:03Z,42.805,6.029,13.3019,4.60080,2470.693,2023-7-08T14:58:19Z
2023-07-08T12:59:06Z,42.805,6.029,13.3021,4.60080,2470.73,2023-7-08T15:01:22Z
2023-07-08T13:02:09Z,42.805,6.029,13.3023,4.60079,2470.717,2023-7-08T15:04:25Z
2023-07-08T13:05:12Z,42.805,6.029,13.3017,4.60079,2470.707,2023-7-08T15:07:28Z
2023-07-08T13:08:15Z,42.805,6.029,13.3019,4.60079,2470.693,2023-7-08T15:10:32Z
2023-07-08T13:11:19Z,42.805,6.029,13.3024,4.60079,2470.717,2023-7-08T15:13:35Z
2023-07-08T13:14:22Z,42.805,6.029,13.3021,4.60080,2470.693,2023-7-08T15:16:38Z
2023-07-08T13:17:25Z,42.805,6.029,13.3019,4.60080,2470.67,2023-7-08T15:19:41Z
2023-07-08T13:20:28Z,42.805,6.029,13.3024,4.60081,2470.693,2023-7-08T15:22:44Z
2023-07-08T13:23:31Z,42.805,6.029,13.3023,4.60080,2470.707,2023-7-08T15:25:47Z
2023-07-08T13:26:34Z,42.805,6.029,13.3024,4.60079,2470.707,2023-7-08T15:28:50Z
2023-07-08T13:29:37Z,42.805,6.029,13.3020,4.60079,2470.693,2023-7-08T15:31:53Z
2023-07-08T13:32:40Z,42.805,6.029,13.3021,4.60083,2470.707,2023-7-08T15:34:56Z
2023-07-08T13:35:43Z,42.805,6.029,13.3024,4.60079,2470.707,2023-7-08T15:37:59Z
2023-07-08T13:38:46Z,42.805,6.029,13.3022,4.60079,2470.693,2023-7-08T15:41:02Z
2023-07-08T13:41:49Z,42.805,6.029,13.3021,4.60079,2470.684,2023-7-08T15:44:06Z
2023-07-08T13:44:53Z,42.805,6.029,13.3019,4.60079,2470.693,2023-7-08T15:47:09Z
2023-07-08T13:47:56Z,42.805,6.029,13.3021,4.60079,2470.73,2023-7-08T15:50:12Z
2023-07-08T13:50:59Z,42.805,6.029,13.3020,4.60079,2470.67,2023-7-08T15:53:15Z
2023-07-08T13:54:02Z,42.805,6.029,13.3024,4.60079,2470.67,2023-7-08T15:56:18Z
2023-07-08T13:57:05Z,42.805,6.029,13.3025,4.60081,2470.67,2023-7-08T15:59:21Z
2023-07-08T14:00:08Z,42.805,6.029,13.3024,4.60079,2470.684,2023-7-08T16:02:24Z
2023-07-08T14:03:11Z,42.805,6.029,13.3022,4.60079,2470.684,2023-7-08T16:05:27Z
2023-07-08T14:06:14Z,42.805,6.029,13.3024,4.60081,2470.67,2023-7-08T16:08:30Z
2023-07-08T14:09:17Z,42.805,6.029,13.3021,4.60079,2470.707,2023-7-08T16:11:33Z
2023-07-08T14:12:20Z,42.805,6.029,13.3020,4.60080,2470.646,2023-7-08T16:14:36Z
2023-07-08T14:15:23Z,42.805,6.029,13.3023,4.60081,2470.707,2023-7-08T16:17:39Z
2023-07-08T14:18:26Z,42.805,6.029,13.3019,4.60081,2470.684,2023-7-08T16:20:43Z
2023-07-08T14:21:30Z,42.805,6.029,13.3023,4.60079,2470.684,2023-7-08T16:23:46Z
2023-07-08T14:24:33Z,42.805,6.029,13.3024,4.60081,2470.67,2023-7-08T16:26:49Z
2023-07-08T14:27:36Z,42.805,6.029,13.3021,4.60079,2470.67,2023-7-08T16:29:52Z
2023-07-08T14:30:39Z,42.805,6.029,13.3018,4.60080,2470.684,2023-7-08T16:32:56Z
2023-07-08T14:33:43Z,42.805,6.029,13.3017,4.60079,2470.661,2023-7-08T16:35:59Z
2023-07-08T14:36:46Z,42.805,6.029,13.3025,4.60079,2470.646,2023-7-08T16:39:02Z
2023-07-08T14:39:49Z,42.805,6.029,13.3019,4.60081,2470.646,2023-7-08T16:42:05Z
2023-07-08T14:42:52Z,42.805,6.029,13.3024,4.60080,2470.67,2023-7-08T16:45:08Z
2023-07-08T14:45:55Z,42.805,6.029,13.3019,4.60079,2470.67,2023-7-08T16:48:11Z
2023-07-08T14:48:58Z,42.805,6.029,13.3023,4.60079,2470.67,2023-7-08T16:51:14Z
2023-07-08T14:52:01Z,42.805,6.029,13.3025,4.60079,2470.67,2023-7-08T16:54:17Z
2023-07-08T14:55:04Z,42.805,6.029,13.3019,4.60079,2470.693,2023-7-08T16:57:20Z
2023-07-08T14:58:07Z,42.805,6.029,13.3018,4.60079,2470.646,2023-7-08T17:00:23Z
2023-07-08T15:01:10Z,42.805,6.029,13.3019,4.60081,2470.646,2023-7-08T17:03:26Z
2023-07-08T15:04:13Z,42.805,6.029,13.3023,4.60079,2470.661,2023-7-08T17:06:29Z
2023-07-08T15:07:16Z,42.805,6.029,13.3021,4.60081,2470.661,2023-7-08T17:09:33Z
2023-07-08T15:10:20Z,42.805,6.029,13.3021,4.60081,2470.646,2023-7-08T17:12:36Z
2023-07-08T15:13:23Z,42.805,6.029,13.3024,4.60079,2470.67,2023-7-08T17:15:39Z